RH
98 97 96 96 96 97 98 99 99 98 98 97 95 94 93 93 94 94 95 97 98 99 100 100 100 99 100 100 98 98 97 96 95 92 88 85 82 80 78 76 74 73
96 95 96 96 96 97 98 98 99 98 97 97 94 92 91 91 93 93 93 94 95 96 98 98 99 99 98 99 99 98 98 97 97 96 96 97 95 94 93 91 90 89
94 94 94 94 95 96 97 97 97 97 96 97 97 95 94 93 93 93 93 94 95 95 97 97 97 97 97 97 98 98 97 96 97 97 97 98 97 97 97 97 96 95
93 94 93 93 94 94 95 95 94 94 94 95 96 96 98 98 98 97 95 96 96 96 97 98 97 97 98 98 99 99 99 98 98 97 97 97 97 98 98 97 97 96
93 94 94 94 95 95 96 96 95 96 96 95 95 95 96 98 98 99 98 97 97 97 97 97 98 98 98 99 99 99 98 98 98 98 98 98 98 99 99 98 98 97
92 93 93 94 94 95 95 94 94 95 95 95 96 95 95 96 96 96 96 95 94 94 93 94 95 96 98 99 100 100 99 99 98 98 98 98 99 99 99 99 99 99
87 87 88 89 90 90 90 90 90 91 91 92 93 93 93 94 94 94 94 94 94 93 92 92 92 92 94 95 96 98 99 99 99 98 97 96 96 95 95 96 97 98
72 72 73 74 75 76 76 77 78 78 78 80 81 82 82 83 84 85 86 88 89 90 91 92 93 93 94 94 94 95 95 96 97 98 99 98 97 97 96 96 96 97
61 60 60 61 61 62 62 62 62 62 63 64 65 66 67 68 69 70 72 73 75 77 79 81 84 85 87 89 91 92 93 94 96 96 98 98 98 99 99 99 99 99
52 48 48 49 49 48 47 46 45 45 45 46 47 47 48 50 51 52 54 56 59 62 64 66 69 71 73 75 77 79 81 83 85 87 89 91 92 94 95 97 98 98
38 35 35 35 35 34 33 33 32 32 32 32 31 32 32 32 33 33 35 36 39 41 43 46 49 52 55 59 62 64 67 69 71 73 74 75 77 79 81 84 88 91
33 32 32 32 31 31 31 31 30 30 29 29 28 28 27 27 26 26 26 26 26 27 28 29 30 31 34 37 40 44 47 52 55 59 63 65 66 67 67 68 70 73
36 35 34 34 33 33 33 32 31 30 30 28 27 27 26 25 24 23 23 22 22 22 22 22 22 22 23 24 25 27 28 30 33 37 42 47 52 56 59 62 63 63
40 40 39 38 37 36 35 33 32 30 29 28 26 26 25 23 22 22 21 20 19 18 18 18 17 17 17 18 18 19 19 20 22 22 24 27 30 34 39 44 50 54
44 44 43 42 41 39 37 34 32 30 29 28 26 25 24 23 22 21 20 19 18 17 16 16 15 15 14 14 13 14 14 15 15 16 17 18 19 20 21 24 27 32
48 46 45 43 41 39 36 33 31 30 29 28 26 25 24 23 22 21 20 19 18 18 17 16 15 15 13 13 13 12 12 12 12 12 12 13 13 14 14 15 16 18
52 50 48 46 42 38 35 33 31 30 28 27 26 25 24 22 22 21 20 19 18 18 17 16 15 15 14 13 13 12 12 12 11 11 11 11 11 11 11 10 11 12
58 56 53 49 44 39 35 33 32 29 27 26 24 23 22 21 20 19 19 19 18 17 17 16 15 15 15 14 14 13 14 13 12 12 11 11 10 10 10 10 9 9
60 58 55 49 44 40 36 33 31 28 26 25 23 22 21 20 19 18 18 18 17 17 16 16 16 16 15 15 16 15 15 16 16 14 12 12 12 11 10 10 10 10
63 59 55 49 43 39 35 32 30 27 26 24 22 21 20 20 19 18 18 18 18 17 17 16 17 17 16 17 18 17 19 24 24 18 15 15 13 13 14 13 12 12
66 60 54 48 43 38 34 32 29 28 27 24 23 23 22 22 21 20 20 20 20 20 19 18 19 19 18 19 20 21 23 27 26 20 19 20 18 17 17 17 17 16
65 59 54 48 44 40 37 35 33 30 29 27 26 26 25 25 24 24 24 23 23 23 22 21 22 22 21 22 23 25 27 28 26 24 27 30 29 25 21 21 23 22
66 62 57 53 51 47 43 39 36 33 32 30 29 29 28 28 27 26 26 26 26 26 26 26 26 26 26 26 26 29 33 33 34 39 46 48 44 39 32 28 27 26
73 70 67 65 61 54 46 40 37 36 34 33 34 33 32 32 31 30 30 31 31 31 31 32 32 33 34 32 32 37 43 47 51 58 65 65 62 58 50 41 35 32
79 77 75 72 64 52 44 41 39 38 38 38 39 39 38 38 37 36 36 36 36 37 38 38 39 40 41 40 41 45 54 68 79 82 83 83 80 72 62 53 49 43
84 80 74 66 57 47 43 42 42 42 43 43 43 44 44 44 44 45 44 43 44 44 44 46 47 47 46 47 49 51 63 87 98 94 92 91 84 75 69 66 63 55
Wind_Speed
9 9 8 8 9 9 8 8 7 6 5 4 3 3 2 2 1 1 1 2 3 4 5 6 7 8 8 9 10 11 12 14 15 17 18 18 19 20 21 21 22 22
8 8 8 7 7 7 7 6 5 5 4 3 2 2 2 1 1 1 1 1 1 2 4 5 5 6 6 7 8 8 9 10 12 13 15 16 17 19 20 21 22 23
9 8 8 7 7 7 6 5 4 3 3 3 2 2 2 1 1 1 2 2 2 2 2 3 4 4 5 5 5 6 6 7 7 8 9 11 13 15 16 18 19 19
8 8 8 7 7 6 5 5 4 3 2 2 2 1 1 1 0 1 1 2 2 2 2 2 3 3 4 5 4 4 4 5 4 5 6 7 9 11 12 14 15 16
9 8 8 7 7 6 6 5 4 4 4 3 2 2 2 2 2 2 3 3 3 3 3 3 4 4 4 5 5 5 5 5 5 5 5 6 8 9 10 11 12 13
11 10 9 8 8 7 6 6 6 6 5 5 4 3 2 2 2 2 2 3 3 4 4 4 4 4 4 5 5 6 6 7 7 7 8 8 9 10 10 11 11 12
12 11 10 9 9 8 8 8 8 7 7 6 5 4 4 3 2 2 1 1 1 2 3 4 4 4 5 6 6 6 7 7 8 8 9 10 10 11 12 12 12 12
12 11 11 9 8 8 8 9 8 8 8 6 5 6 5 5 4 4 4 3 2 1 1 1 2 2 3 5 6 7 8 8 8 9 9 10 11 12 12 13 13 13
11 11 10 8 8 8 8 9 8 8 7 6 6 6 6 5 6 6 5 5 5 4 4 3 3 2 2 2 3 4 5 6 7 8 9 10 11 12 12 13 14 14
9 9 8 7 8 8 8 8 8 7 6 6 6 6 5 5 6 6 6 5 5 5 5 5 5 5 5 5 4 4 5 5 6 6 7 7 8 9 11 11 12 14
8 8 7 7 7 7 7 7 7 6 6 6 6 5 6 6 6 6 6 6 6 6 6 6 6 6 7 7 7 7 7 7 7 8 8 8 9 9 9 10 10 11
6 6 6 6 6 6 7 7 6 6 6 6 6 6 7 7 7 7 8 8 8 9 9 9 9 9 9 9 9 10 10 10 10 10 10 10 11 11 11 12 12 11
5 4 5 5 6 6 7 7 7 7 7 8 8 8 8 9 9 9 9 10 10 11 11 11 12 12 12 12 12 13 13 13 12 13 13 13 13 13 14 14 14 14
4 5 5 5 6 6 7 8 9 9 10 10 10 10 10 11 11 12 12 12 12 12 12 13 13 14 14 15 15 15 16 16 16 16 16 16 15 15 15 16 16 17
7 7 8 8 8 9 11 12 13 13 13 13 13 14 14 14 14 14 14 14 14 14 14 14 15 15 15 16 17 17 18 19 18 19 19 19 18 18 17 17 18 18
9 10 10 11 12 14 15 17 18 18 18 18 18 18 18 17 17 17 17 17 17 16 16 16 16 16 16 17 17 18 20 21 21 21 22 22 22 21 20 20 20 20
10 11 13 14 15 17 19 20 21 21 22 22 22 21 21 21 21 21 21 20 20 19 19 18 18 18 17 17 17 18 20 21 22 23 24 24 24 23 23 23 22 22
12 14 15 17 19 20 22 23 23 24 24 24 24 24 24 24 24 24 24 23 23 23 22 21 20 20 18 18 18 18 19 21 23 25 25 26 25 24 23 24 24 24
14 15 17 19 21 23 24 25 25 25 26 26 26 25 25 25 25 25 25 25 25 25 24 23 23 22 21 19 19 18 18 19 22 26 27 26 26 24 24 24 25 25
15 17 19 21 23 24 25 26 26 26 26 27 27 26 26 26 26 26 26 25 26 26 26 25 24 23 22 21 20 19 17 18 23 26 26 26 25 25 24 24 24 25
17 19 21 23 24 25 26 26 27 27 27 27 27 26 26 26 26 26 26 25 25 26 26 25 24 23 23 21 20 19 18 20 24 27 26 25 26 25 23 22 23 25
19 22 24 25 26 26 27 28 28 28 27 27 27 26 25 25 25 25 25 25 25 25 26 26 24 23 23 22 20 18 18 21 24 24 24 24 25 25 23 21 22 23
22 23 25 26 27 28 29 29 29 28 27 26 26 26 25 25 25 24 24 24 24 24 25 25 24 23 23 22 20 17 18 20 22 22 22 23 25 25 24 22 21 21
23 25 26 27 29 30 30 30 28 27 26 25 25 25 24 24 23 23 23 22 23 24 24 24 24 22 22 22 19 15 16 18 19 20 22 23 24 24 23 22 21 21
25 26 28 29 31 31 30 28 27 26 25 24 24 24 24 23 22 22 21 20 21 22 22 22 23 21 21 20 18 14 13 15 17 19 21 22 23 24 24 23 22 22
27 29 30 32 32 30 28 26 25 24 24 23 23 22 22 22 21 21 21 19 18 19 20 20 20 20 20 19 18 15 12 12 15 19 21 23 24 24 24 23 22 23
Wind_Direction
169 172 175 176 175 171 168 164 161 159 156 153 149 140 135 131 136 210 245 236 236 231 225 224 222 220 219 220 222 224 227 228 230 232 233 233 233 233 234 234 235 236
146 148 150 153 155 153 150 149 147 145 137 122 108 95 84 53 18 338 319 291 260 239 231 229 227 225 222 219 218 218 219 222 224 229 234 235 238 238 238 239 239 239
141 142 143 143 142 140 140 140 139 137 123 106 94 79 72 56 9 348 338 336 325 304 271 251 243 240 235 229 226 221 219 221 221 225 231 236 238 239 239 240 240 240
137 139 140 139 139 139 138 144 150 147 140 133 131 128 128 147 235 287 302 315 318 315 306 291 274 262 251 245 240 233 226 225 224 225 231 238 241 242 243 244 244 244
124 125 127 127 126 126 130 138 140 136 137 136 137 157 182 204 231 250 264 276 285 295 300 297 289 279 269 260 253 249 243 241 242 244 246 248 250 251 251 252 253 253
111 108 108 109 109 112 117 117 115 115 116 111 107 118 133 154 199 223 236 248 259 268 275 280 280 276 272 268 264 259 252 248 249 249 250 252 254 256 257 258 259 259
104 101 99 99 100 103 104 101 98 99 95 89 87 89 89 90 94 104 121 158 211 240 250 254 257 257 257 256 256 257 255 254 253 252 252 252 253 256 257 258 260 261
99 97 95 95 96 95 93 91 87 84 80 75 72 68 60 54 53 52 50 48 44 30 350 278 253 245 246 247 247 250 252 251 251 251 252 252 252 254 254 254 256 257
97 95 93 92 92 88 85 83 79 76 73 66 61 55 45 37 33 29 26 22 17 9 0 355 348 333 307 285 270 262 259 257 255 253 252 252 253 254 254 254 254 255
96 93 91 87 82 78 74 71 67 64 58 51 49 43 35 29 22 15 11 5 358 354 348 343 339 334 328 321 313 304 296 288 282 277 272 269 266 263 262 261 260 259
94 90 85 78 73 68 64 58 51 46 38 31 25 18 12 8 1 355 349 345 340 335 334 332 328 323 320 316 312 308 302 299 295 292 290 287 283 282 279 277 275 273
88 81 69 64 59 52 47 39 29 21 14 7 1 356 351 345 340 337 333 331 330 328 324 322 320 316 312 308 305 303 299 297 295 292 291 289 287 287 286 285 284 282
70 59 50 47 42 35 27 17 9 3 355 349 346 342 338 333 329 326 325 325 323 321 318 315 314 311 308 305 302 299 296 292 291 289 286 284 284 285 284 284 283 281
30 21 17 16 14 9 1 353 350 347 344 341 338 334 329 327 325 321 320 319 317 315 312 310 308 306 304 302 299 296 293 291 289 287 284 282 281 280 279 279 279 279
360 355 353 351 348 345 341 339 339 337 336 335 332 331 328 326 323 321 318 316 314 313 310 307 305 303 301 299 297 294 291 289 288 286 284 282 279 277 275 276 275 275
348 344 343 340 337 336 334 333 333 332 332 330 329 328 327 324 322 320 317 315 312 311 310 309 306 304 302 301 299 296 292 290 288 285 283 282 280 279 277 275 274 272
341 338 337 335 332 331 329 328 329 328 327 326 326 325 324 323 322 319 317 315 313 311 309 309 307 305 304 301 299 297 295 292 289 286 283 281 280 281 280 277 275 272
335 333 332 329 327 326 325 325 324 323 323 322 321 321 321 321 320 318 317 315 313 311 310 309 307 305 304 301 298 295 294 292 290 286 284 283 283 282 281 280 277 275
326 326 324 322 321 321 321 321 320 319 319 319 318 319 318 317 316 315 315 314 311 310 309 308 308 306 305 303 298 295 294 291 287 283 283 285 286 284 282 280 278 276
316 316 315 314 316 316 316 316 316 317 318 317 316 316 314 314 314 312 312 311 309 308 307 306 306 305 304 303 300 298 296 289 284 283 285 287 286 284 284 282 279 276
308 309 311 311 312 313 313 314 314 315 316 315 314 314 313 312 311 310 309 309 307 306 304 303 304 302 300 300 299 299 295 288 284 286 290 291 288 285 284 283 280 277
305 307 309 311 312 314 314 315 315 315 315 314 312 311 310 309 308 307 307 306 304 304 302 301 301 300 298 297 297 297 293 288 288 290 292 292 289 287 285 282 279 278
306 308 311 312 314 316 316 316 316 315 315 313 311 310 309 307 306 306 305 304 304 303 301 300 300 300 297 296 297 297 293 290 291 294 293 291 290 290 288 285 281 280
307 310 312 313 313 315 316 315 315 314 313 312 311 309 308 307 306 305 304 304 303 302 301 300 301 301 300 297 298 298 293 292 294 295 293 293 293 293 291 289 286 280
307 308 309 310 311 312 313 313 312 312 311 310 309 308 307 306 305 303 302 301 299 298 298 298 299 299 298 297 298 295 292 297 300 295 292 291 291 292 293 293 289 282
302 304 305 307 308 309 309 309 309 309 308 306 306 305 304 304 304 303 301 299 296 293 292 294 294 293 292 293 293 291 293 301 296 288 288 291 292 294 295 294 291 287